When you browse on this site, cookies collect data to enhance your experience and personalize the content and advertising you see.
Visit our Privacy Policy to learn more. By continuing to use the site, you agree to this use of cookies and data.
  • In Germany
  • List of Countries
  • For 7 days
  • Water Temperature
  • Weather Map
  • Weather Widgets
  • user-avatar
    Login

    Hourly Weather Voorschoten

    Today, 25 February, Tuesday

    Time Temperature Precipitation Wind Pressure Humidity
    00:00 +7°C° 0.1 mm 9 mps 751 mmHg 71%
    01:00 +6°C° 0 mm 9 mps 751 mmHg 71%
    02:00 +6°C° 0 mm 9 mps 751 mmHg 71%
    03:00 +5°C° 0 mm 8 mps 751 mmHg 71%
    04:00 +5°C° 0 mm 8 mps 750 mmHg 71%
    05:00 +4°C° 0 mm 8 mps 750 mmHg 72%
    06:00 +3°C° 0 mm 9 mps 750 mmHg 72%
    07:00 +3°C° 0.1 mm 9 mps 750 mmHg 70%
    08:00 +5°C° 0.1 mm 9 mps 750 mmHg 67%
    09:00 +5°C° 0.1 mm 9 mps 749 mmHg 65%
    10:00 +5°C° 0.1 mm 10 mps 749 mmHg 63%
    11:00 +6°C° 0.1 mm 10 mps 749 mmHg 62%
    12:00 +6°C° 0.1 mm 10 mps 749 mmHg 61%
    13:00 +6°C° 0.2 mm 10 mps 748 mmHg 60%
    14:00 +5°C° 0.2 mm 10 mps 747 mmHg 60%
    15:00 +5°C° 0.2 mm 10 mps 747 mmHg 59%
    16:00 +5°C° 0.1 mm 9 mps 747 mmHg 62%
    17:00 +4°C° 0.1 mm 8 mps 746 mmHg 64%
    18:00 +4°C° 0.1 mm 6 mps 746 mmHg 66%
    19:00 +3°C° 0.1 mm 5 mps 745 mmHg 69%
    20:00 +3°C° 0.1 mm 5 mps 745 mmHg 72%
    21:00 +4°C° 0.1 mm 4 mps 744 mmHg 75%
    22:00 +3°C° 0.8 mm 4 mps 744 mmHg 80%
    23:00 +2°C° 0.8 mm 5 mps 744 mmHg 85%

    Tomorrow, 26 February, Wednesday

    Time Temperature Precipitation Wind Pressure Humidity
    00:00 +1°C° 0.8 mm 5 mps 743 mmHg 90%
    01:00 +1°C° 1.1 mm 6 mps 743 mmHg 89%
    02:00 0°C° 1.1 mm 8 mps 743 mmHg 88%
    03:00 0°C° 1.1 mm 9 mps 743 mmHg 86%
    04:00 +1°C° 0.5 mm 9 mps 743 mmHg 83%
    05:00 +1°C° 0.5 mm 9 mps 744 mmHg 80%
    06:00 +1°C° 0.5 mm 9 mps 744 mmHg 77%
    07:00 +2°C° 0.2 mm 9 mps 745 mmHg 74%
    08:00 +2°C° 0.2 mm 9 mps 746 mmHg 72%
    09:00 +2°C° 0.2 mm 9 mps 746 mmHg 69%
    10:00 +2°C° 0.1 mm 9 mps 747 mmHg 69%
    11:00 +3°C° 0.1 mm 9 mps 748 mmHg 68%
    12:00 +3°C° 0.1 mm 9 mps 749 mmHg 68%
    13:00 +3°C° 0.1 mm 9 mps 749 mmHg 67%
    14:00 +3°C° 0.1 mm 9 mps 750 mmHg 67%
    15:00 +4°C° 0.1 mm 8 mps 750 mmHg 66%
    16:00 +4°C° 0 mm 8 mps 751 mmHg 66%
    17:00 +3°C° 0 mm 7 mps 751 mmHg 67%
    18:00 +3°C° 0 mm 7 mps 752 mmHg 67%
    19:00 +3°C° 0.2 mm 7 mps 752 mmHg 68%
    20:00 +3°C° 0.2 mm 7 mps 753 mmHg 69%
    21:00 +2°C° 0.2 mm 7 mps 753 mmHg 70%
    22:00 +2°C° 0.1 mm 7 mps 753 mmHg 69%
    23:00 +2°C° 0.1 mm 7 mps 753 mmHg 68%

    Day after tomorrow, 27 February, Thursday

    Time Temperature Precipitation Wind Pressure Humidity
    00:00 +2°C° 0.1 mm 7 mps 754 mmHg 67%
    01:00 +1°C° 0 mm 6 mps 753 mmHg 68%
    02:00 +1°C° 0 mm 6 mps 753 mmHg 69%
    03:00 +1°C° 0 mm 6 mps 752 mmHg 70%
    04:00 +1°C° 0.2 mm 6 mps 752 mmHg 76%
    05:00 +1°C° 0.2 mm 6 mps 751 mmHg 81%
    06:00 -1°C° 0.2 mm 7 mps 751 mmHg 86%
    07:00 -1°C° 0.6 mm 6 mps 750 mmHg 89%
    08:00 -1°C° 0.6 mm 6 mps 749 mmHg 92%
    09:00 0°C° 0.6 mm 5 mps 748 mmHg 95%
    10:00 +1°C° 0.7 mm 5 mps 748 mmHg 95%
    11:00 +1°C° 0.7 mm 5 mps 747 mmHg 95%
    12:00 +1°C° 0.7 mm 4 mps 747 mmHg 95%
    13:00 +1°C° 1.3 mm 5 mps 747 mmHg 95%
    14:00 +1°C° 1.3 mm 6 mps 747 mmHg 95%
    15:00 -1°C° 1.3 mm 7 mps 747 mmHg 95%
    16:00 0°C° 0.3 mm 7 mps 748 mmHg 88%
    17:00 0°C° 0.3 mm 7 mps 748 mmHg 81%
    18:00 +1°C° 0.3 mm 8 mps 749 mmHg 73%
    19:00 +1°C° 0.2 mm 8 mps 750 mmHg 73%
    20:00 +1°C° 0.2 mm 8 mps 751 mmHg 72%
    21:00 +1°C° 0.2 mm 8 mps 752 mmHg 72%
    22:00 +1°C° 0.1 mm 8 mps 753 mmHg 71%
    23:00 +1°C° 0.1 mm 8 mps 754 mmHg 70%

    28 February, Friday

    Time Temperature Precipitation Wind Pressure Humidity
    00:00 +1°C° 0.1 mm 8 mps 755 mmHg 70%
    01:00 +1°C° 0 mm 8 mps 755 mmHg 71%
    02:00 +1°C° 0 mm 8 mps 756 mmHg 72%
    03:00 +2°C° 0 mm 7 mps 756 mmHg 73%
    04:00 +2°C° 0 mm 7 mps 757 mmHg 73%
    05:00 0°C° 0 mm 7 mps 757 mmHg 74%
    06:00 +1°C° 0 mm 6 mps 758 mmHg 74%
    07:00 +2°C° 0 mm 6 mps 758 mmHg 73%
    08:00 +3°C° 0 mm 6 mps 758 mmHg 71%
    09:00 +3°C° 0 mm 6 mps 759 mmHg 70%
    10:00 +4°C° 0 mm 6 mps 759 mmHg 67%
    11:00 +4°C° 0 mm 6 mps 759 mmHg 65%
    12:00 +5°C° 0 mm 6 mps 759 mmHg 63%
    13:00 +5°C° 0 mm 6 mps 759 mmHg 63%
    14:00 +6°C° 0 mm 5 mps 758 mmHg 63%
    15:00 +6°C° 0 mm 5 mps 758 mmHg 63%
    16:00 +5°C° 0 mm 5 mps 757 mmHg 67%
    17:00 +3°C° 0 mm 5 mps 757 mmHg 71%
    18:00 +2°C° 0 mm 5 mps 756 mmHg 74%
    19:00 +2°C° 0 mm 5 mps 755 mmHg 76%
    20:00 +2°C° 0 mm 6 mps 755 mmHg 78%
    21:00 +2°C° 0 mm 6 mps 754 mmHg 80%
    22:00 +2°C° 0.1 mm 6 mps 753 mmHg 83%
    23:00 +2°C° 0.1 mm 7 mps 751 mmHg 86%

    29 February, Saturday

    Time Temperature Precipitation Wind Pressure Humidity
    00:00 +2°C° 0.1 mm 7 mps 750 mmHg 90%
    01:00 +1°C° 0.7 mm 8 mps 749 mmHg 91%
    02:00 +2°C° 0.7 mm 8 mps 747 mmHg 93%
    03:00 +2°C° 0.7 mm 8 mps 746 mmHg 95%
    04:00 +5°C° 1 mm 8 mps 744 mmHg 93%
    05:00 +6°C° 1 mm 8 mps 743 mmHg 92%
    06:00 +7°C° 1 mm 9 mps 741 mmHg 90%
    07:00 +7°C° 0.2 mm 10 mps 741 mmHg 87%
    08:00 +7°C° 0.2 mm 11 mps 740 mmHg 85%
    09:00 +7°C° 0.2 mm 12 mps 739 mmHg 82%
    10:00 +7°C° 0.4 mm 12 mps 739 mmHg 77%
    11:00 +6°C° 0.4 mm 11 mps 740 mmHg 73%
    12:00 +5°C° 0.4 mm 10 mps 741 mmHg 68%
    13:00 +4°C° 0.1 mm 11 mps 741 mmHg 63%
    14:00 +4°C° 0.1 mm 11 mps 742 mmHg 59%
    15:00 +4°C° 0.1 mm 12 mps 743 mmHg 54%
    16:00 +4°C° 0.1 mm 11 mps 743 mmHg 56%
    17:00 +3°C° 0.1 mm 11 mps 743 mmHg 58%
    18:00 +3°C° 0.1 mm 11 mps 744 mmHg 60%
    19:00 +2°C° 0.3 mm 10 mps 744 mmHg 62%
    20:00 +2°C° 0.3 mm 10 mps 745 mmHg 63%
    21:00 +2°C° 0.3 mm 10 mps 746 mmHg 64%
    22:00 +2°C° 0.3 mm 10 mps 746 mmHg 65%
    23:00 +2°C° 0.3 mm 10 mps 746 mmHg 66%

    1 March, Sunday

    Time Temperature Precipitation Wind Pressure Humidity
    00:00 +2°C° 0.3 mm 10 mps 747 mmHg 68%
    01:00 +1°C° 0.2 mm 9 mps 747 mmHg 68%
    02:00 +1°C° 0.2 mm 9 mps 747 mmHg 68%
    03:00 +1°C° 0.2 mm 9 mps 747 mmHg 68%
    04:00 +1°C° 0.2 mm 8 mps 748 mmHg 69%
    05:00 +1°C° 0.2 mm 8 mps 748 mmHg 70%
    06:00 +1°C° 0.2 mm 8 mps 748 mmHg 71%
    07:00 +1°C° 0.4 mm 8 mps 748 mmHg 69%
    08:00 +2°C° 0.4 mm 8 mps 748 mmHg 67%
    09:00 +4°C° 0.4 mm 8 mps 749 mmHg 65%
    10:00 +4°C° 0.4 mm 8 mps 749 mmHg 63%
    11:00 +3°C° 0.4 mm 9 mps 749 mmHg 62%
    12:00 +3°C° 0.4 mm 9 mps 749 mmHg 60%
    13:00 +4°C° 0.1 mm 8 mps 749 mmHg 59%
    14:00 +5°C° 0.1 mm 8 mps 749 mmHg 59%
    15:00 +5°C° 0.1 mm 7 mps 749 mmHg 58%
    16:00 +4°C° 0 mm 7 mps 749 mmHg 62%
    17:00 +3°C° 0 mm 6 mps 749 mmHg 65%
    18:00 +3°C° 0 mm 5 mps 750 mmHg 69%
    19:00 +2°C° 0 mm 5 mps 750 mmHg 71%
    20:00 +3°C° 0 mm 4 mps 750 mmHg 73%
    21:00 +3°C° 0 mm 4 mps 750 mmHg 75%
    22:00 +3°C° 0.1 mm 4 mps 750 mmHg 77%
    23:00 +3°C° 0.1 mm 4 mps 751 mmHg 78%
    Show more